www.pogodaiklimat.ru

Погода и климат >> Архив погоды >> Казахстан >> Диевская


ПОГОДА в Диевской

  • Прогноз погоды в Диевской
  • Монитор погоды в Диевской
  • Климат города

АРХИВ ПОГОДЫ в Диевской

Время (UTC), дата Ветер
(напр.,м/с)
 
Видим.   Явления Облачность Т
(С)
Тd
(С)
f
(%)
Тe
(С)
Тes
(С)
Комфортность P
(гПа)
Po
(гПа)
Тmin
(С)
Tmax
(С)
R
(мм)
R24
(мм)
S
(см)
21 7.08 СЗ 2 н/о {гроза} 3/0
[Ac lent]
+19.8 +13.9 69 +22 +22 комфорт 1006.9 982.2
00 8.08 СЗ 2 10 км 6/0
[Ci fib]
+17.5 +14.6 83 +18 +18 1007.8 982.7
06 8.08 З 1 20 км 3/0
[Ci fib]
+24.4 +15.1 56 +27 +41 жарко 1008.0 983.5 +17.4
09 8.08 З 4 20 км 3/3 1000 м
[Cu med, cong]
+28.4 +14.5 43 +31 +37 душно 1007.1 983.0
12 8.08 З 2 20 км 3/3 1000 м
[Cu med, cong]
+29.8 +13.9 38 +32 +35 душно 1005.4 981.5
15 8.08 С 1 20 км ясно +29.2 +14.8 42 +32 +32 душно 1005.4 981.5 +30.8
18 8.08 В 2 н/о ясно +24.0 +13.6 52 +26 +26 жарко 1005.7 981.4 +30.8
21 8.08 Ю 4 н/о 4/0
[Ac trans]
+22.4 +14.4 61 +26 +26 жарко 1005.0 980.5
00 9.08 ЮЗ 3 10 км 6/0
[Ac trans]
+20.7 +14.8 69 +24 +24 комфорт 1004.9 980.3
06 9.08 З 5 20 км 8/3 1000 м
[Cu med, cong Ac trans]
+26.2 +15.8 53 +29 +32 жарко 1005.9 981.7 +19.8
09 9.08 З 6 20 км 6/6 1000 м
[Cu med, cong]
+29.4 +14.9 41 +32 +34 душно 1004.8 980.9
12 9.08 ЮЗ 9 20 км 8/8 1000 м
[Cu med, cong]
+30.2 +11.7 32 +31 +31 жарко 1003.7 979.8
15 9.08 З 10 20 км 9/4 1000 м
[Cu med, cong Ac trans]
+26.5 +16.1 53 +30 +30 душно 1004.7 980.6 +30.8
18 9.08 Ю 5 н/о 8/0
[Ac trans]
+24.0 +15.8 60 +27 +27 жарко 1005.1 980.8 +30.8
21 9.08 З 7 н/о 6/0
[Ac trans]
+21.5 +15.1 67 +25 +25 комфорт 1005.1 980.5
00 10.08 З 6 10 км ясно +16.1 +12.3 78 +15 +15 1006.1 981.1
06 10.08 СЗ 7 20 км 9/9 1000 м
[Cu med, cong]
+15.8 +11.0 73 +14 +15 1008.7 983.5 +15.2
09 10.08 С 8 20 км 9/9 1000 м
[Cu med, cong]
+18.7 +10.7 60 +18 +19 1009.0 984.0
12 10.08 С 8 20 км 9/9 1000 м
[Cu med, cong]
+18.8 +8.6 51 +19 +19 1009.4 984.4
15 10.08 СЗ 9 20 км 9/9 1000 м
[Cu med, cong]
+15.4 +9.8 69 +13 +13 1011.4 986.2 +20.0
18 10.08 СЗ 6 н/о 9/0
[Ac trans]
+14.1 +9.0 71 +12 +12 1013.2 987.7 +20.0
21 10.08 С 5 н/о 4/0
[Ci fib]
+12.9 +9.2 78 +11 +11 1012.8 987.3
00 11.08 З 5 н/о ясно +10.9 +7.8 81 +8 +8 1012.3 986.6
06 11.08 З 10 20 км 9/3 1000 м
[Cu med, cong Ac trans Ci fib]
+20.1 +12.1 60 +21 +21 комфорт 1009.0 984.2 +10.8
18 11.08 З 5 н/о 9/9 1000 м
[Sc]
+17.3 +11.0 66 +17 +17 1008.4 983.3 +25.6
21 11.08 З 3 н/о 9/6 1000 м
[Sc Ac trans]
+16.9 +11.3 70 +17 +17 1009.2 984.1
00 12.08 СЗ 5 н/о 4/0
[Ac lent]
+13.7 +9.7 77 +12 +12 1010.7 985.3
06 12.08 С 8 20 км 3/3 1000 м
[Cu med, cong]
+20.7 +11.1 54 +22 +24 комфорт 1012.5 987.6 +12.7
09 12.08 СЗ 8 20 км 4/4 1000 м
[Cu med, cong]
+23.6 +9.2 40 +24 +26 комфорт 1012.4 987.7
12 12.08 СЗ 7 20 км 3/3 1000 м
[Cu med, cong]
+25.4 +7.0 31 +25 +26 комфорт 1012.0 987.5
15 12.08 С 5 20 км 3/0
[Ac lent]
+23.6 +10.4 43 +25 +25 комфорт 1012.8 988.1 +26.2
18 12.08 З 2 н/о ясно +19.6 +11.2 58 +21 +21 комфорт 1013.9 988.9 +26.2
21 12.08 ЮЗ 1 н/о ясно +17.7 +10.9 64 +19 +19 1014.2 989.0
00 13.08 ЮЗ 2 н/о ясно +16.3 +10.3 68 +16 +16 1014.6 989.3
06 13.08 З 5 20 км 3/0
[Ci fib]
+25.4 +14.3 50 +28 +34 жарко 1014.4 989.9 +15.6
09 13.08 З 4 20 км 8/8 1000 м
[Cu med, cong]
+28.9 +14.6 42 +31 +33 жарко 1013.4 989.2
12 13.08 Ю 2 20 км 9/9 1000 м
[Cu med, cong]
+29.8 +12.5 35 +31 +31 жарко 1012.6 988.5
15 13.08 В 1 20 км 4/4 1000 м
[Cu med, cong]
+29.0 +14.1 40 +31 +31 жарко 1012.2 988.0 +29.9
18 13.08 Ю 4 н/о ясно +23.4 +13.0 52 +26 +26 жарко 1013.2 988.5 +29.9
21 13.08 Ю 3 н/о ясно +22.0 +12.9 56 +25 +25 комфорт 1012.7 987.9
00 14.08 Ю 3 н/о 9/9 1000 м
[Cu med, cong]
+22.6 +14.5 60 +26 +26 жарко 1012.5 987.8
09 14.08 В 2 4000 м слабый ливневой дождь 9/9 600 м
[Cb calv]
+23.8 +16.9 65 +27 +29 жарко 1012.9 988.3
12 14.08 СВ 6 20 км {гроза, ливн. осадки} 9/9 1000 м
[Cu med, cong]
+20.7 +14.6 68 +23 +24 комфорт 1011.2 986.5

 

Местоположение метеостанции Диевская (Костанайская область, Казахстан): широта 52.00 долгота 63.69 высота над уровнем моря 120 м.

В архиве по умолчанию представлена погода в Диевской за последнюю неделю. Архивные данные за месяц целиком и за предыдущие месяцы, начиная с января 2011 года, Вы можете получить, выбрав интересующий диапазон дат из раскрывающегося списка и нажав кнопку "Ввод!".


*Определитесь, кто Вы:
робот инопланетянин человек

Внимание! Время в таблицах - всемирное. Для получения местного времени необходимо прибавить поправку, которая в Диевской равна 5 ч.

Смотрите также архив погоды в соседних городах и на ближайших метеорологических станциях:

Погода в Караменды (Костанайская область, Казахстан) (79 км)
Погода в Кусмурыне (Костанайская область, Казахстан) (85 км)
Погода в Тоболе (Костанайская область, Казахстан) (106 км)
Погода в Рудном (Костанайская область, Казахстан) (115 км)
Погода в Аралколе (Актюбинская область, Казахстан) (123 км)
Погода в Костанае 2 (Костанайская область, Казахстан) (134 км)
Погода в Костанае (Костанайская область, Казахстан) (136 км)
Погода в Железнодорожной (Костанайская область, Казахстан) (136 км)
Погода в Карасу (Костанайская область, Казахстан) (144 км)
Погода в Житикаре (Костанайская область, Казахстан) (165 км)

Пояснения к столбцам:

Ветер - указаны скорость ветра в м/с - средняя за 10 мин, порывы в срок и между сроками (в фигурных скобках) и направление, откуда дует ветер: С - северный, СВ - северо-восточный, В - восточный, ЮВ - юго-восточный, Ю - южный, ЮЗ - юго-западный, З - западный, СЗ - северо-западный.
Видимость - горизонтальная дальность видимости в метрах или километрах. При видимости от 1 до 10 км при отсутствии осадков обычно наблюдается дымка, при ухудшении видимости до 1 км и менее - туман. В сухую погоду видимость может ухудшаться дымом, пылью или мглою.
Явления - указаны атмосферные явления, наблюдавшиеся в срок или в последний час перед сроком; фигурными скобками обозначены явления, наблюдавшиеся между сроками (за 1-3 часа до срока); квадратными скобками обозначены град или гололедные отложения с указанием их диаметра в мм.
Облачность - указаны через наклонную черту общая и нижняя облачность в баллах и высота нижней границы облаков в метрах; квадратными скобками обозначены формы облаков: Ci - перистые, Cs - перисто-слоистые, Cc - перисто-кучевые, Ac - высококучевые, As - высокослоистые, Sc - слоисто-кучевые, Ns - слоисто-дождевые, Cu - кучевые, Cb - кучево-дождевые. Подробнее классификацию облаков см. в Атласе облаков (PDF).
T - Температура воздуха - температура, измеренная на высоте 2 м над землей.
Td - Температура точки росы - температура, при понижении до которой содержащийся в воздухе водяной пар достигнет насыщения.
f - Относительная влажность воздуха - влажноcть воздуха, измеренная на высоте 2 м над землей.
Te - Эффективная температура - температура, которую ощущает одетый по сезону человек в тени. Характеристика душности погоды. При расчете учитывается влияние влажности воздуха и скорости ветра на теплоощущения человека.
Tes - Эффективная температура на солнце - температура, которую ощущает человек, с поправкой на солнечный нагрев. Характеристика знойности погоды. Зависит от высоты солнца над горизонтом, облачности и скорости ветра. Ночью, в пасмурную погоду, а также при ветре 12 м/с и более поправка равна нулю.
P - Атмосферное давление - приведенное к уровню моря атмосферное давление.
Po - Атмосферное давление - измеренное на уровне метеостанции атмосферное давление.
Tmin - Минимальная температура - минимум температуры воздуха на высоте 2 м над землей.
Tmax - Максимальная температура - максимум температуры воздуха на высоте 2 м над землей.
R - Количество осадков - Количество выпавших осадков за период времени, мм. При наведении курсора мыши на число - период времени, за который выпало указанное количество осадков.
R24 - Количество осадков - Количество выпавших осадков за 24 часа, мм.
S - Снежный покров - Высота снежного покрова, см. При наведении курсора мыши на число - состояние снежного покрова и степень покрытия местности в баллах.